This demonstration page uses our WeatherBlox Daily Observations layout. Learn more.

Left ArrowRight Arrow

38.20091, -84.87328

Hourly Observations for April 25, 2020

Temp ( °F °C ) Dew Point ( °F °C ) Humidity (%) Winds ( mph kmh ) Pressure ( in mb ) Visibility ( mi km ) Precip ( " mm )
12:53 am 00:53 Clear 48 8.9 45 7.2 89 89 Calm 29.87 1012 10 16 0.00 0.00
1:53 am 01:53 Clear 47 8.3 44 6.7 90 90 Calm 29.88 1012 7 11 0.00 0.00
2:33 am 02:33 Mostly Clear 46 7.8 43 6.1 89 89 Calm 29.90 1012 8 13 0.00 0.00
2:53 am 02:53 Mostly Clear 46 7.8 43 6.1 89 89 Calm 29.87 1012 10 16 0.00 0.00
3:53 am 03:53 Clear 46 7.8 43 6.1 89 89 Calm 29.85 1011 8 13 0.00 0.00
4:02 am 04:02 Clear with Mist and Fog 46 7.8 44 6.7 93 93 E 3 6 29.87 1011 2 2 0.00 0.00
4:10 am 04:10 Clear with Mist and Fog 46 7.8 43 6.1 89 89 E 3 6 29.87 1011 1 2 0.00 0.00
4:13 am 04:13 Clear with Mist and Fog 46 7.8 43 6.1 89 89 E 3 6 29.87 1011 2 3 0.00 0.00
4:20 am 04:20 Clear 47 8.3 45 7.2 93 93 Calm 29.87 1011 7 11 0.00 0.00
4:53 am 04:53 Clear 48 8.9 45 7.2 89 89 Calm 29.85 1011 8 13 0.00 0.00
5:53 am 05:53 Clear 47 8.3 44 6.7 90 90 Calm 29.86 1011 10 16 0.00 0.00
6:53 am 06:53 Sunny 47 8.3 44 6.7 90 90 Calm 29.85 1011 8 13 0.00 0.00
7:53 am 07:53 Sunny with Mist and Fog 50 10 47 8.3 89 89 E 3 6 29.85 1011 6 10 0.00 0.00
8:53 am 08:53 Sunny 53 11.7 50 10 89 89 ENE 6 9 29.85 1011 10 16 0.00 0.00
9:53 am 09:53 Sunny 58 14.4 51 10.6 78 78 E 9 15 29.83 1010 10 16 0.00 0.00
10:53 am 10:53 Mostly Cloudy 64 17.8 53 11.7 68 68 SE 10 17 29.82 1010 10 16 0.00 0.00
11:53 am 11:53 Sunny 66 18.9 54 12.2 65 65 E 10 17 29.79 1009 10 16 0.00 0.00
12:53 pm 12:53 Mostly Cloudy 66 18.9 54 12.2 65 65 ESE 8 13 29.78 1008 10 16 0.00 0.00
1:53 pm 13:53 Cloudy with Light Rain 65 18.3 54 12.2 68 68 ESE 10 17 29.75 1007 10 16 0.00 0.00
2:53 pm 14:53 Cloudy with Rain 61 16.1 55 12.8 81 81 S 14 22 29.76 1008 5 8 0.03 0.76
3:53 pm 15:53 Cloudy with Light Rain 58 14.4 54 12.2 87 87 ESE 10 17 29.73 1007 10 16 0.06 1.52
4:53 pm 16:53 Cloudy 59 15 55 12.8 87 87 ESE 6 9 29.71 1006 10 16 0.02 0.51
5:46 pm 17:46 Cloudy 60 15.6 55 12.8 84 84 Calm 29.71 1006 10 16 0.00 0.00
5:53 pm 17:53 Cloudy with Light Rain 60 15.6 55 12.8 84 84 Calm 29.71 1006 10 16 0.00 0.00
6:06 pm 18:06 Cloudy with Light Rain 60 15.6 56 13.3 86 86 NNW 5 7 29.71 1006 10 16 0.00 0.00
6:18 pm 18:18 Cloudy with Light Rain 59 15 56 13.3 90 90 NNW 5 7 29.71 1006 7 11 0.01 0.25
6:53 pm 18:53 Cloudy with Light Rain 59 15 56 13.3 90 90 N 5 7 29.69 1006 9 14 0.03 0.76
7:53 pm 19:53 Cloudy with Rain 58 14.4 56 13.3 93 93 NNE 3 6 29.69 1005 4 6 0.09 2.29
8:53 pm 20:53 Cloudy with Light Rain 58 14.4 56 13.3 93 93 Calm 29.68 1005 6 10 0.06 1.52
8:55 pm 20:55 Cloudy with Light Rain 58 14.4 56 13.3 93 93 Calm 29.69 1005 5 8 0.00 0.00
9:08 pm 21:08 Cloudy with Rain 58 14.4 56 13.3 93 93 Calm 29.69 1005 3 5 0.03 0.76
9:28 pm 21:28 Cloudy with Rain 57 13.9 53 11.7 87 87 S 3 6 29.69 1005 5 8 0.08 2.03
9:38 pm 21:38 Cloudy with Rain 56 13.3 53 11.7 90 90 Calm 29.69 1005 6 10 0.10 2.54
9:53 pm 21:53 Cloudy with Light Rain 56 13.3 53 11.7 90 90 Calm 29.69 1005 8 13 0.12 3.05
10:53 pm 22:53 Cloudy 56 13.3 53 11.7 90 90 Calm 29.68 1005 10 16 0.03 0.76
11:03 pm 23:03 Cloudy 56 13.3 53 11.7 90 90 Calm 29.69 1005 10 16 0.00 0.00
11:16 pm 23:16 Cloudy with Light Rain 56 13.3 53 11.7 90 90 Calm 29.69 1005 10 16 0.00 0.00
11:24 pm 23:24 Cloudy with Light Rain 56 13.3 54 12.2 93 93 Calm 29.69 1005 9 14 0.00 0.00
11:53 pm 23:53 Cloudy with Light Rain 56 13.3 54 12.2 93 93 Calm 29.67 1005 6 10 0.02 0.51

Powered by AerisWeather